Simultaneous Nadir Overpasses (SNOs) Predictions

Prediction of SNOs between NOAA-19 and TERRA Satellite Orbit:

Table of predicted SNOs for the next 14.0 days since TLE Epoch: 4/7/2015
Index Date (NOAA-19) Time (NOAA-19) Lat,Lon (NOAA-19) SZA (NOAA-19 ) Date (TERRA) Time (TERRA) Lat,Lon (TERRA) SZA (TERRA ) Distance(km) Time Diff (sec)
1 04/09/2015 01:16:00 -72.38, -16.87 115.11 04/09/2015 01:17:08 -72.27, -15.02 115.19 63.69 68
2 04/09/2015 02:06:45 71.76, 151.63 64.27 04/09/2015 02:06:43 71.74, 151.71 64.26 2.93 2
3 04/09/2015 02:57:33 -70.87, -39.53 116.60 04/09/2015 02:56:26 -70.92, -41.99 116.60 89.80 67
4 04/11/2015 06:50:12 71.81, 80.71 63.52 04/11/2015 06:50:58 71.79, 80.73 63.50 1.88 46
5 04/11/2015 07:41:15 -71.68,-111.81 116.63 04/11/2015 07:40:28 -71.68,-111.83 116.63 0.73 47
6 04/13/2015 11:33:54 72.63, 8.23 63.52 04/13/2015 11:35:00 72.52, 10.97 63.46 91.88 66
7 04/13/2015 12:24:43 -71.78, 177.17 117.33 04/13/2015 12:24:42 -71.77, 177.25 117.34 3.41 1
8 04/13/2015 13:15:27 71.11, -14.35 62.02 04/13/2015 13:14:18 71.18, -16.08 62.04 62.58 69
9 04/15/2015 17:08:10 -71.84, 106.22 118.05 04/15/2015 17:08:56 -71.83, 106.30 118.06 3.23 46
10 04/15/2015 17:59:04 71.70, -86.23 61.80 04/15/2015 17:58:23 71.73, -86.23 61.82 3.42 41
11 04/17/2015 21:51:52 -72.67, 33.72 118.02 04/17/2015 21:52:58 -72.52, 36.48 118.12 93.30 66
12 04/17/2015 22:42:31 71.78,-157.20 61.10 04/17/2015 22:42:37 71.77,-157.21 61.09 0.42 6
13 04/17/2015 23:33:25 -71.17, 11.14
